Location: Fish Springs
(37.0754°N, 118.2540°W)
Time: 22:25:39
(UTC+00:00)

X-37B - Pass Details

Date: 28 January 2022
Orbit: 329 x 342 km, 45.0° (Epoch: 18 May)

Event Time Altitude Azimuth Distance (km) Brightness Sun altitude
Rises 02:43:11 0° 259° (WSW) 2,110 6.1 -18.1°
Reaches altitude 10° 02:45:16 10° 267° (W) 1,272 4.4 -18.5°
Enters shadow 02:47:55 37° 336° (NNW) 542 1.4 -19.1°
